N301SR LIMC-LIRA

Flight info

Callsign N301SR
Flight time 0h 50m
Altitude 37000
Route ROBAS DCT EKDIR DCT KUGIX DCT AMTEL DCT GITOD
Aircraft B737/M-DE2GRSWYZ/LB1

Departure

Time 2026-05-04 20:08
Airport Milan Malpensa International Airport (LIMC)

Arrival

Time 2026-05-04 20:58
Airport Ciampino–G. B. Pastine International Airport (LIRA)
Time Latitude Longitude Altitude Speed Heading
2026-05-04 19:42 45.63424 8.71228 735 ft 0 kts 349°
2026-05-04 19:50 45.63422 8.71229 735 ft 1 kts 349°
2026-05-04 19:50 45.63406 8.71233 735 ft 3 kts 353°
2026-05-04 19:50 45.63386 8.71235 735 ft 3 kts
2026-05-04 19:50 45.63366 8.71233 735 ft 3 kts 18°
2026-05-04 19:51 45.63350 8.71220 735 ft 3 kts 63°
2026-05-04 19:51 45.63347 8.71212 732 ft 0 kts 79°
2026-05-04 19:54 45.63348 8.71219 733 ft 3 kts 82°
2026-05-04 19:54 45.63354 8.71275 735 ft 8 kts 80°
2026-05-04 19:54 45.63365 8.71358 734 ft 8 kts 79°
2026-05-04 19:54 45.63376 8.71441 734 ft 9 kts 79°
2026-05-04 19:55 45.63389 8.71534 735 ft 11 kts 79°
2026-05-04 19:55 45.63405 8.71652 734 ft 13 kts 79°
2026-05-04 19:55 45.63420 8.71760 734 ft 10 kts 79°
2026-05-04 19:55 45.63385 8.71827 735 ft 10 kts 167°
2026-05-04 19:56 45.63313 8.71848 735 ft 12 kts 168°
2026-05-04 19:56 45.63217 8.71874 735 ft 16 kts 169°
2026-05-04 19:56 45.63092 8.71909 735 ft 20 kts 169°
2026-05-04 19:56 45.62951 8.71947 735 ft 20 kts 169°
2026-05-04 19:57 45.62814 8.71985 735 ft 20 kts 169°
2026-05-04 19:57 45.62681 8.72022 734 ft 19 kts 169°
2026-05-04 19:57 45.62551 8.72058 736 ft 19 kts 169°
2026-05-04 19:57 45.62419 8.72095 736 ft 20 kts 169°
2026-05-04 19:58 45.62283 8.72132 736 ft 20 kts 169°
2026-05-04 19:58 45.62147 8.72170 736 ft 20 kts 169°
2026-05-04 19:58 45.62009 8.72208 736 ft 20 kts 169°
2026-05-04 19:58 45.61874 8.72245 735 ft 19 kts 169°
2026-05-04 19:59 45.61745 8.72281 736 ft 19 kts 169°
2026-05-04 19:59 45.61620 8.72315 736 ft 18 kts 169°
2026-05-04 19:59 45.61504 8.72347 736 ft 13 kts 169°
2026-05-04 19:59 45.61424 8.72366 736 ft 10 kts 184°
2026-05-04 20:00 45.61386 8.72292 736 ft 10 kts 259°
2026-05-04 20:00 45.61366 8.72203 735 ft 10 kts 221°
2026-05-04 20:00 45.61294 8.72205 736 ft 14 kts 168°
2026-05-04 20:00 45.61184 8.72236 736 ft 19 kts 169°
2026-05-04 20:01 45.61050 8.72272 736 ft 20 kts 169°
2026-05-04 20:01 45.60919 8.72314 736 ft 19 kts 163°
2026-05-04 20:01 45.60790 8.72344 735 ft 18 kts 171°
2026-05-04 20:01 45.60678 8.72384 736 ft 13 kts 149°
2026-05-04 20:02 45.60638 8.72491 735 ft 13 kts 97°
2026-05-04 20:02 45.60627 8.72639 736 ft 17 kts 96°
2026-05-04 20:02 45.60613 8.72825 736 ft 20 kts 96°
2026-05-04 20:02 45.60599 8.73016 736 ft 16 kts 96°
2026-05-04 20:03 45.60590 8.73166 736 ft 15 kts 85°
2026-05-04 20:03 45.60646 8.73275 736 ft 14 kts 26°
2026-05-04 20:03 45.60741 8.73331 736 ft 16 kts 22°
2026-05-04 20:03 45.60850 8.73394 736 ft 15 kts 22°
2026-05-04 20:04 45.60950 8.73393 736 ft 14 kts 348°
2026-05-04 20:04 45.61053 8.73364 735 ft 16 kts 349°
2026-05-04 20:04 45.61164 8.73333 736 ft 16 kts 349°
2026-05-04 20:04 45.61271 8.73304 736 ft 15 kts 349°
2026-05-04 20:05 45.61374 8.73275 736 ft 15 kts 349°
2026-05-04 20:05 45.61473 8.73247 735 ft 14 kts 349°
2026-05-04 20:05 45.61566 8.73221 736 ft 11 kts 349°
2026-05-04 20:05 45.61616 8.73249 736 ft 8 kts 70°
2026-05-04 20:06 45.61627 8.73340 736 ft 10 kts 81°
2026-05-04 20:06 45.61626 8.73444 736 ft 11 kts 115°
2026-05-04 20:06 45.61591 8.73536 736 ft 10 kts 109°
2026-05-04 20:06 45.61588 8.73636 736 ft 10 kts 81°
2026-05-04 20:07 45.61618 8.73719 736 ft 10 kts 31°
2026-05-04 20:07 45.61689 8.73717 736 ft 15 kts 349°
2026-05-04 20:07 45.62097 8.73602 736 ft 107 kts 349°
2026-05-04 20:07 45.63091 8.73326 808 ft 176 kts 346°
2026-05-04 20:08 45.64247 8.72986 2066 ft 156 kts 350°
2026-05-04 20:08 45.65295 8.72789 3184 ft 154 kts 358°
2026-05-04 20:08 45.66016 8.72937 3620 ft 161 kts 20°
2026-05-04 20:08 45.66899 8.73944 4316 ft 174 kts 54°
2026-05-04 20:09 45.67661 8.76274 4888 ft 210 kts 68°
2026-05-04 20:09 45.68282 8.78214 5566 ft 219 kts 52°
2026-05-04 20:09 45.69011 8.79220 6174 ft 220 kts 39°
2026-05-04 20:09 45.70207 8.80586 7148 ft 222 kts 40°
2026-05-04 20:10 45.71432 8.82008 8052 ft 229 kts 43°
2026-05-04 20:10 45.72416 8.83897 8664 ft 248 kts 71°
2026-05-04 20:10 45.72637 8.86459 9023 ft 274 kts 104°
2026-05-04 20:10 45.71852 8.88927 9989 ft 275 kts 128°
2026-05-04 20:11 45.70639 8.91110 10729 ft 290 kts 134°
2026-05-04 20:11 45.69229 8.93350 11006 ft 321 kts 135°
2026-05-04 20:11 45.67681 8.95747 11710 ft 334 kts 135°
2026-05-04 20:11 45.66077 8.98209 12643 ft 340 kts 136°
2026-05-04 20:12 45.64372 9.00607 13563 ft 347 kts 141°
2026-05-04 20:12 45.62536 9.02897 14432 ft 354 kts 142°
2026-05-04 20:12 45.60656 9.05150 15371 ft 358 kts 143°
2026-05-04 20:12 45.58724 9.07450 16313 ft 364 kts 143°
2026-05-04 20:13 45.56817 9.09728 17232 ft 369 kts 142°
2026-05-04 20:13 45.54836 9.12107 18140 ft 375 kts 142°
2026-05-04 20:13 45.52829 9.14532 18982 ft 381 kts 142°
2026-05-04 20:13 45.50793 9.16999 19863 ft 384 kts 142°
2026-05-04 20:14 45.48776 9.19450 20734 ft 386 kts 142°
2026-05-04 20:14 45.46714 9.21956 21583 ft 390 kts 142°
2026-05-04 20:14 45.44639 9.24477 22392 ft 395 kts 142°
2026-05-04 20:14 45.42532 9.27035 23197 ft 399 kts 142°
2026-05-04 20:15 45.40403 9.29618 23935 ft 403 kts 142°
2026-05-04 20:15 45.38260 9.32216 24549 ft 408 kts 142°
2026-05-04 20:15 45.36082 9.34853 25140 ft 413 kts 142°
2026-05-04 20:15 45.33876 9.37522 25726 ft 418 kts 142°
2026-05-04 20:16 45.31676 9.40178 26292 ft 422 kts 143°
2026-05-04 20:16 45.29417 9.42905 26858 ft 427 kts 143°
2026-05-04 20:16 45.27130 9.45662 27410 ft 432 kts 143°
2026-05-04 20:16 45.24852 9.48405 27924 ft 436 kts 143°
2026-05-04 20:17 45.22491 9.51246 28439 ft 441 kts 143°
2026-05-04 20:17 45.20137 9.54075 28926 ft 446 kts 143°
2026-05-04 20:17 45.17787 9.56895 29389 ft 450 kts 143°
2026-05-04 20:17 45.15381 9.59779 29838 ft 455 kts 143°
2026-05-04 20:18 45.12948 9.62693 30233 ft 459 kts 144°
2026-05-04 20:18 45.10495 9.65627 30597 ft 462 kts 144°
2026-05-04 20:18 45.08019 9.68587 30954 ft 465 kts 144°
2026-05-04 20:18 45.05539 9.71546 31303 ft 468 kts 144°
2026-05-04 20:19 45.03070 9.74491 31695 ft 469 kts 144°
2026-05-04 20:19 45.00572 9.77468 32172 ft 468 kts 144°
2026-05-04 20:19 44.98081 9.80433 32679 ft 467 kts 144°
2026-05-04 20:19 44.95592 9.83391 33131 ft 467 kts 144°
2026-05-04 20:20 44.93104 9.86344 33535 ft 467 kts 144°
2026-05-04 20:20 44.90609 9.89299 33958 ft 467 kts 144°
2026-05-04 20:20 44.88152 9.92207 34343 ft 466 kts 144°
2026-05-04 20:20 44.85656 9.95158 34711 ft 466 kts 144°
2026-05-04 20:21 44.83167 9.98097 35061 ft 466 kts 144°
2026-05-04 20:21 44.80680 10.01031 35418 ft 466 kts 144°
2026-05-04 20:21 44.75738 10.06850 36131 ft 465 kts 144°
2026-05-04 20:22 44.73254 10.09770 36487 ft 464 kts 145°
2026-05-04 20:22 44.70776 10.12680 36815 ft 464 kts 145°
2026-05-04 20:22 44.68290 10.15594 37088 ft 466 kts 145°
2026-05-04 20:22 44.65781 10.18529 37061 ft 471 kts 145°
2026-05-04 20:23 44.60758 10.24403 37070 ft 468 kts 145°
2026-05-04 20:23 44.55819 10.30171 37097 ft 463 kts 145°
2026-05-04 20:24 44.50862 10.35940 37138 ft 464 kts 145°
2026-05-04 20:24 44.45885 10.41717 37166 ft 465 kts 145°
2026-05-04 20:25 44.40902 10.47490 37174 ft 465 kts 145°
2026-05-04 20:25 44.35902 10.53271 37183 ft 466 kts 146°
2026-05-04 20:26 44.30929 10.59008 37196 ft 466 kts 146°
2026-05-04 20:26 44.25919 10.64775 37200 ft 467 kts 146°
2026-05-04 20:27 44.20888 10.70551 37204 ft 467 kts 146°
2026-05-04 20:27 44.15744 10.75983 37194 ft 465 kts 149°
2026-05-04 20:28 44.10466 10.81212 37189 ft 466 kts 150°
2026-05-04 20:28 44.05173 10.86467 37169 ft 467 kts 149°
2026-05-04 20:29 43.99897 10.91750 37142 ft 467 kts 149°
2026-05-04 20:29 43.94654 10.97008 37130 ft 467 kts 149°
2026-05-04 20:30 43.89376 11.02291 37107 ft 467 kts 149°
2026-05-04 20:30 43.84082 11.07575 37093 ft 468 kts 149°
2026-05-04 20:31 43.78828 11.12808 37100 ft 468 kts 149°
2026-05-04 20:31 43.73538 11.18063 37097 ft 468 kts 149°
2026-05-04 20:32 43.68240 11.23316 37105 ft 468 kts 149°
2026-05-04 20:32 43.62933 11.28568 37110 ft 469 kts 149°
2026-05-04 20:33 43.57650 11.33784 37112 ft 470 kts 149°
2026-05-04 20:33 43.52166 11.38618 37121 ft 465 kts 156°
2026-05-04 20:34 43.46447 11.42814 37022 ft 467 kts 158°
2026-05-04 20:34 43.43565 11.44914 36733 ft 468 kts 157°
2026-05-04 20:34 43.40723 11.47007 36476 ft 467 kts 157°
2026-05-04 20:35 43.37865 11.49125 36224 ft 467 kts 157°
2026-05-04 20:35 43.34996 11.51258 35964 ft 468 kts 157°
2026-05-04 20:35 43.32129 11.53391 35706 ft 468 kts 158°
2026-05-04 20:35 43.29265 11.55519 35482 ft 468 kts 158°
2026-05-04 20:36 43.26421 11.57627 35222 ft 469 kts 158°
2026-05-04 20:36 43.23599 11.59876 34750 ft 473 kts 152°
2026-05-04 20:36 43.20978 11.62711 33845 ft 484 kts 142°
2026-05-04 20:36 43.18679 11.66130 32901 ft 491 kts 134°
2026-05-04 20:37 43.16533 11.69779 32121 ft 489 kts 132°
2026-05-04 20:37 43.14440 11.73423 31492 ft 483 kts 132°
2026-05-04 20:37 43.12370 11.77020 30854 ft 477 kts 132°
2026-05-04 20:37 43.10330 11.80526 30230 ft 472 kts 132°
2026-05-04 20:38 43.08278 11.84013 29519 ft 466 kts 132°
2026-05-04 20:38 43.06250 11.87429 28866 ft 458 kts 132°
2026-05-04 20:38 43.04251 11.90780 28228 ft 451 kts 132°
2026-05-04 20:38 43.02277 11.94079 27602 ft 445 kts 132°
2026-05-04 20:39 43.00334 11.97323 26959 ft 438 kts 132°
2026-05-04 20:39 42.98410 12.00533 26314 ft 433 kts 132°
2026-05-04 20:39 42.96517 12.03686 25695 ft 428 kts 132°
2026-05-04 20:39 42.94641 12.06812 25078 ft 422 kts 132°
2026-05-04 20:40 42.92784 12.09903 24470 ft 417 kts 131°
2026-05-04 20:40 42.90954 12.12946 23857 ft 412 kts 131°
2026-05-04 20:40 42.89143 12.15954 23161 ft 407 kts 131°
2026-05-04 20:40 42.87358 12.18917 22504 ft 402 kts 131°
2026-05-04 20:41 42.85593 12.21844 21868 ft 397 kts 131°
2026-05-04 20:41 42.83873 12.24696 21412 ft 388 kts 131°
2026-05-04 20:41 42.82197 12.27471 21279 ft 372 kts 132°
2026-05-04 20:41 42.80576 12.30138 21111 ft 357 kts 134°
2026-05-04 20:42 42.78727 12.32299 20726 ft 346 kts 151°
2026-05-04 20:42 42.76679 12.33960 20314 ft 341 kts 153°
2026-05-04 20:42 42.74620 12.35554 19866 ft 339 kts 153°
2026-05-04 20:42 42.72600 12.37112 19420 ft 337 kts 153°
2026-05-04 20:43 42.70565 12.38693 18965 ft 335 kts 153°
2026-05-04 20:43 42.68543 12.40278 18512 ft 334 kts 153°
2026-05-04 20:43 42.66529 12.41867 17984 ft 334 kts 153°
2026-05-04 20:43 42.64529 12.43451 17498 ft 331 kts 153°
2026-05-04 20:44 42.62550 12.45022 17030 ft 329 kts 153°
2026-05-04 20:44 42.60603 12.46568 16571 ft 326 kts 152°
2026-05-04 20:44 42.58645 12.48123 16116 ft 324 kts 152°
2026-05-04 20:44 42.56699 12.49668 15657 ft 321 kts 152°
2026-05-04 20:45 42.54774 12.51195 15211 ft 319 kts 152°
2026-05-04 20:45 42.52858 12.52714 14763 ft 317 kts 152°
2026-05-04 20:45 42.50978 12.54204 14325 ft 316 kts 152°
2026-05-04 20:45 42.49078 12.55708 13832 ft 315 kts 152°
2026-05-04 20:46 42.47189 12.57203 13330 ft 313 kts 152°
2026-05-04 20:46 42.45316 12.58685 12865 ft 310 kts 152°
2026-05-04 20:46 42.43462 12.60150 12402 ft 307 kts 152°
2026-05-04 20:46 42.41649 12.61580 11954 ft 304 kts 152°
2026-05-04 20:47 42.39727 12.62694 11506 ft 299 kts 170°
2026-05-04 20:47 42.37670 12.62758 11062 ft 294 kts 189°
2026-05-04 20:47 42.35659 12.62326 10608 ft 291 kts 191°
2026-05-04 20:47 42.33675 12.61859 10296 ft 285 kts 191°
2026-05-04 20:48 42.31752 12.61414 10055 ft 276 kts 190°
2026-05-04 20:48 42.29886 12.60995 9630 ft 274 kts 190°
2026-05-04 20:48 42.28013 12.60583 9230 ft 271 kts 189°
2026-05-04 20:48 42.26171 12.60181 9030 ft 261 kts 189°
2026-05-04 20:49 42.24418 12.59742 8778 ft 254 kts 195°
2026-05-04 20:49 42.22752 12.58980 8477 ft 250 kts 200°
2026-05-04 20:49 42.21130 12.58138 8177 ft 248 kts 201°
2026-05-04 20:49 42.19530 12.57304 8149 ft 245 kts 201°
2026-05-04 20:50 42.17962 12.56498 8116 ft 243 kts 200°
2026-05-04 20:50 42.16373 12.55695 7761 ft 240 kts 200°
2026-05-04 20:50 42.14822 12.54920 7258 ft 242 kts 200°
2026-05-04 20:50 42.13249 12.54140 6898 ft 236 kts 200°
2026-05-04 20:51 42.11758 12.53402 6803 ft 221 kts 200°
2026-05-04 20:51 42.10339 12.52701 6510 ft 215 kts 199°
2026-05-04 20:51 42.08936 12.52008 6107 ft 215 kts 199°
2026-05-04 20:51 42.07527 12.51312 6040 ft 215 kts 199°
2026-05-04 20:52 42.06215 12.50664 5938 ft 211 kts 199°
2026-05-04 20:52 42.04853 12.49992 5530 ft 212 kts 199°
2026-05-04 20:52 42.03461 12.49306 5084 ft 215 kts 199°
2026-05-04 20:52 42.02060 12.48616 4638 ft 212 kts 199°
2026-05-04 20:53 42.00682 12.47938 4150 ft 209 kts 199°
2026-05-04 20:53 41.99338 12.47304 3697 ft 206 kts 192°
2026-05-04 20:53 41.97943 12.47474 3262 ft 203 kts 160°
2026-05-04 20:53 41.96638 12.48135 3001 ft 192 kts 160°
2026-05-04 20:54 41.95456 12.48796 2985 ft 180 kts 156°
2026-05-04 20:54 41.94338 12.49525 2977 ft 177 kts 154°
2026-05-04 20:54 41.93236 12.50278 2980 ft 174 kts 154°
2026-05-04 20:54 41.92188 12.51003 2872 ft 165 kts 154°
2026-05-04 20:55 41.91522 12.51464 2735 ft 161 kts 154°
2026-05-04 20:55 41.90216 12.52367 2461 ft 157 kts 154°
2026-05-04 20:55 41.89246 12.53038 2258 ft 157 kts 154°
2026-05-04 20:55 41.88278 12.53707 2046 ft 155 kts 154°
2026-05-04 20:56 41.87647 12.54144 1908 ft 146 kts 154°
2026-05-04 20:56 41.86789 12.54738 1714 ft 136 kts 154°
2026-05-04 20:56 41.85983 12.55296 1543 ft 130 kts 153°
2026-05-04 20:56 41.85183 12.55850 1384 ft 129 kts 153°
2026-05-04 20:57 41.84387 12.56411 1215 ft 129 kts 153°
2026-05-04 20:57 41.83581 12.56972 1012 ft 132 kts 154°
2026-05-04 20:57 41.82763 12.57523 835 ft 131 kts 153°
2026-05-04 20:57 41.81959 12.58096 682 ft 130 kts 152°
2026-05-04 20:58 41.81151 12.58647 531 ft 131 kts 154°
2026-05-04 20:58 41.80348 12.59200 413 ft 125 kts 154°
2026-05-04 20:58 41.79725 12.59632 408 ft 71 kts 153°
2026-05-04 20:58 41.79427 12.59837 414 ft 40 kts 153°
2026-05-04 20:59 41.79199 12.59992 411 ft 31 kts 153°
2026-05-04 20:59 41.79087 12.60063 410 ft 7 kts 172°
2026-05-04 20:59 41.79055 12.60041 412 ft 6 kts 234°
2026-05-04 20:59 41.79028 12.59962 404 ft 6 kts 246°
2026-05-04 21:00 41.79026 12.59921 406 ft 0 kts 288°
2026-05-04 21:00 41.79026 12.59920 406 ft 0 kts 288°
2026-05-04 21:00 41.79030 12.59913 406 ft 3 kts 302°
2026-05-04 21:00 41.79054 12.59890 406 ft 5 kts 330°
2026-05-04 21:01 41.79086 12.59867 406 ft 5 kts 332°
2026-05-04 21:01 41.79118 12.59845 406 ft 5 kts 333°
2026-05-04 21:01 41.79161 12.59815 406 ft 9 kts 333°
2026-05-04 21:01 41.79233 12.59767 406 ft 13 kts 333°
2026-05-04 21:02 41.79313 12.59710 406 ft 13 kts 332°
2026-05-04 21:02 41.79391 12.59656 406 ft 12 kts 333°
2026-05-04 21:02 41.79468 12.59604 406 ft 12 kts 333°
2026-05-04 21:02 41.79541 12.59554 403 ft 12 kts 332°
2026-05-04 21:03 41.79613 12.59504 406 ft 12 kts 333°
2026-05-04 21:03 41.79683 12.59456 406 ft 11 kts 333°
2026-05-04 21:03 41.79756 12.59405 406 ft 12 kts 333°
2026-05-04 21:03 41.79829 12.59355 406 ft 12 kts 333°
2026-05-04 21:04 41.79899 12.59306 406 ft 11 kts 332°
2026-05-04 21:04 41.79968 12.59259 406 ft 11 kts 333°
2026-05-04 21:04 41.80035 12.59213 406 ft 11 kts 333°
2026-05-04 21:04 41.80096 12.59171 406 ft 9 kts 333°
2026-05-04 21:05 41.80150 12.59133 406 ft 9 kts 333°
2026-05-04 21:05 41.80174 12.59073 405 ft 9 kts 245°
2026-05-04 21:05 41.80139 12.59010 405 ft 8 kts 232°
2026-05-04 21:05 41.80107 12.58954 405 ft 7 kts 232°
2026-05-04 21:06 41.80109 12.58908 405 ft 5 kts 305°
2026-05-04 21:06 41.80130 12.58883 405 ft 4 kts 322°
2026-05-04 21:06 41.80144 12.58869 405 ft 1 kts 322°
2026-05-04 21:06 41.80145 12.58868 405 ft 0 kts 322°